Location: Arrodets-la-Barthe
(43.0306°N, 0.2829°E)
Time: 02:41:27
(UTC+00:00)

Cosmos 2344 - Pass Details

Date: 03 June 2022
Orbit: 1228 x 3015 km, 63.3° (Epoch: 03 July)

Event Time Altitude Azimuth Distance (km) Brightness Sun altitude
Rises 21:19:33 0° 260° (W) 4,208 6.7 -15.2°
Reaches altitude 10° 21:22:46 10° 272° (W) 3,194 6.2 -15.6°
Maximum altitude 21:29:01 29° 330° (NNW) 2,144 5.6 -16.2°
Drops below altitude 10° 21:35:47 10° 29° (NNE) 3,470 6.2 -16.9°
Sets 21:39:29 0° 41° (NE) 4,640 6.7 -17.3°
